Regional Weather Roundup
Issued by NWS Goodland, KS

Home | Current Version | Previous Version | Text Only | Print | Product List | Glossary Off
Versions: 1 2 3 4 5 6 7 8 9 10 11 12 13 14 15 16 17 18 19 20 21 22 23 24 25 26 27 28 29 30 31 32 33 34 35 36 37 38 39 40 41 42 43 44 45 46 47 48 49 50

000
ASUS43 KGLD 032308
RWRGLD

GOODLAND FORECAST AREA HOURLY WEATHER ROUNDUP
NATIONAL WEATHER SERVICE GOODLAND KS
500 PM MDT THU SEP 03 2015

...OFFICIAL OBSERVATIONS...

CITY           SKY/WX    TMP DP  RH WIND       PRES   REMARKS
GOODLAND KS    CLOUDY    92  48  22 S15       29.80F
HILL CITY KS   PTSUNNY   96  57  27 S23G31    29.75S
IMPERIAL NEB   CLOUDY    97  47  18 S6        29.77F
MCCOOK NEB     CLOUDY    95  54  25 S13       29.73S
AKRON CO       PTSUNNY   88  43  20 N13       29.89S
BURLINGTON CO  PTSUNNY   92  46  20 S17       29.84F
LIMON CO       CLOUDY    84  44  24 N13       29.93F
$$

...UNOFFICIAL OBSERVATIONS...

CITY           SKY/WX    TMP DP  RH WIND       PRES   REMARKS
COLBY KS       SUNNY     93  57  29 S15       29.80S
GOVE KS          N/A     92  32  12 MISG        N/A
LENORA KS        N/A     94  32  11 MISG        N/A
NORTON KS      SUNNY     93  45  18 S17G26    29.73F
SHARON SPRINGS   N/A     95  52  23 S15G22      N/A
KIT CARSON CO    N/A     94  50  22 MISG        N/A
YUMA CO          N/A     90  49  24 CALM        N/A
$$


USA.gov is the U.S. government's official web portal to all federal, state and local government web resources and services.